Regional Weather Roundup
Issued by NWS

Home | Current Version | Previous Version | Text Only | Print | Product List | Glossary Off
Versions: 1 2 3 4 5 6 7 8 9 10 11 12 13 14 15 16 17 18 19 20 21 22 23 24 25 26 27 28 29 30 31 32 33 34 35 36 37 38 39 40 41 42 43 44 45 46 47 48 49 50

434
ASUS43 KDTX 010210
RWRMI
MICHIGAN HOURLY REGIONAL WEATHER ROUNDUP
NATIONAL WEATHER SERVICE DETROIT/PONTIAC MI
1000 PM EDT SUN APR 30 2017

NOTE: "FAIR" INDICATES FEW OR NO CLOUDS BELOW 12,000 FEET WITH NO
SIGNIFICANT WEATHER AND/OR OBSTRUCTION TO VISIBILITY.

MIZ047>049-052>055-059>063-066>070-074>076-081>083-010300-
SOUTHEAST LOWER MICHIGAN

CITY           SKY/WX    TMP DP  RH WIND       PRES   REMARKS
ADRIAN         HVY RAIN  54  54 100 E6        29.79S FOG
ALMA           LGT RAIN  41  41  99 NE13      29.83F
ANN ARBOR      CLOUDY    55  55 100 NE7       29.78F FOG
BAD AXE        CLOUDY    38  38  99 NE8       29.87F FOG     WCI  32
CARO           CLOUDY    40  40 100 NE5       29.85S FOG
DETROIT CITY   LGT RAIN  53  53 100 E7        29.82F FOG
DETROIT        CLOUDY    54  53  97 NE6       29.79F FOG
FLINT          LGT RAIN  45  44  97 NE7       29.83F FOG
GROSSE ILE     CLOUDY    53  52  97 CALM      29.79F FOG
HILLSDALE      RAIN      57  55  94 E6        29.74F
HOWELL         LGT RAIN  48  46  95 N5        29.79F VSB 1/2

CITY           SKY/WX    TMP DP  RH WIND       PRES   REMARKS
JACKSON        RAIN      56  55  97 E8        29.77F FOG
LAMBERTVILLE   CLOUDY    54  53  97 E5        29.77F FOG
LANSING        LGT RAIN  43  40  89 E8        29.81F FOG
LAPEER         CLOUDY    46  45  98 NE3       29.83F FOG
MASON          HVY RAIN  46  46  99 NE6       29.79S
MONROE         CLOUDY    53  52  97 E8        29.78F FOG
MT. CLEMENS    LGT RAIN  51  51 100 SE7       29.82S FOG
PONTIAC        LGT RAIN  52  50  93 E3        29.81F
PORT HOPE        N/A     40  39  97 E18       29.86S WCI  31
PORT HURON     LGT RAIN  52  50  93 SE6       29.85S
TRI CITIES     CLOUDY    43  42  97 NE13      29.85F FOG
MIDLAND        CLOUDY    40  39  94 NE8       29.85F FOG
TROY           CLOUDY    53  51  92 NE5       29.82F FOG
SAGINAW HB     CLOUDY    41  37  87 NE9       29.84F FOG
$$
MIZ043>046-050>051-056>058-064>065-071>073-077>080-010300-
SOUTHWEST LOWER MICHIGAN

CITY           SKY/WX    TMP DP  RH WIND       PRES   REMARKS
BATTLE CREEK   LGT RAIN  48  48 100 NE10      29.76F
BENTON HARBOR  LGT RAIN  53  51  93 E8        29.67F
BIG RAPIDS     MIX PCPN  39  37  92 E10       29.81F WCI  32
COLDWATER      LGT RAIN  62  62 100 E6        29.73F
FREMONT        CLOUDY    41  40  95 E16       29.78F
HOLLAND        LGT RAIN  44  42  93 E9        29.73F
GRAND RAPIDS   RAIN      43  43 100 E15       29.76F FOG
IONIA          LGT RAIN  42  41  97 NE13      29.79F
KALAMAZOO      LGT RAIN  50  47  89 NE6       29.74F FOG
LUDINGTON      CLOUDY    42  39  90 E13G18    29.79F
MARSHALL       LGT RAIN  54  54  98 NE5       29.74F
MOUNT PLEASANT CLOUDY    39  37  94 NE7       29.84F WCI  34
MUSKEGON       LGT RAIN  44  42  93 E17       29.75F
SOUTH HAVEN    LGT RAIN  47  47  99 E8        29.70S
$$
MIZ016>042-010300-
NORTHERN LOWER MICHIGAN

CITY           SKY/WX    TMP DP  RH WIND       PRES   REMARKS
ALPENA         LGT RAIN  37  37 100 NE12G18   29.94F FOG     WCI  29
BEAVER ISLAND  CLOUDY    37  36  93 E12G23    29.94F WCI  30
BELLAIRE       CLOUDY    38  33  84 NE7       29.90F WCI  32
CADILLAC       CLOUDY    37  36  96 E13       29.84S WCI  28
CHARLEVOIX     CLOUDY    38  35  87 E17G23    29.94F WCI  29
FRANKFORT      CLOUDY    40  34  79 E14       29.85S WCI  32
GAYLORD        CLOUDY    36  33  89 E12G20    29.88F FOG     WCI  28
GRAYLING       CLOUDY    35  34  95 E12       29.88F WCI  27
HARBOR SPRINGS CLOUDY    37  36  95 E16G23    29.94S WCI  27
HOUGHTON LAKE  CLOUDY    36  34  92 E13       29.90R WCI  27
MANISTEE       CLOUDY    41  37  86 E13G22    29.81F
OSCODA         MIX PCPN  39  37  95 NE10      29.91S WCI  32
PELLSTON       CLOUDY    37  35  92 E12G18    29.95F WCI  29
ROGERS CITY    CLOUDY    37  36  96 E14       29.97F FOG     WCI  28
TRAVERSE CITY  CLOUDY    40  35  83 E9        29.87F WCI  34
$$
MIZ007>008-015-010300-
EASTERN UPPER MICHIGAN

CITY           SKY/WX    TMP DP  RH WIND       PRES   REMARKS
KINROSS        CLOUDY    40  36  86 E15       29.96F WCI  32
MACKINAC ISLAN CLOUDY    37  37 100 E8G18     29.95F FOG     WCI  30
NEWBERRY       CLOUDY    39  37  92 E7        29.96S WCI  34
S. S. MARIE    CLOUDY    42  36  79 E9        29.97S
MUNISING         N/A     44  33  65 E6        29.95F
$$
MIZ004>006-011>014-085-010300-
CENTRAL UPPER MICHIGAN

CITY           SKY/WX    TMP DP  RH WIND       PRES   REMARKS
MANISTIQUE     CLOUDY    39  37  92 E14       29.94F WCI  31
ESCANABA       CLOUDY    40  35  83 E15       29.94F WCI  32
MENOMINEE      CLOUDY    37  36  93 E17G26    29.90  WCI  28
SAWYER-GWINN   CLOUDY    37  28  70 NE7       29.94F WCI  32
$$
MIZ001>003-009>011-084-010300-
WESTERN UPPER MICHIGAN

CITY           SKY/WX    TMP DP  RH WIND       PRES   REMARKS
IRON MOUNTAIN  CLOUDY    40  33  76 E7G17     29.90F
HOUGHTON       CLOUDY    44  17  33 E7        29.93F
COPPER HARBOR    N/A     40  29  64 CALM      29.97F
IRONWOOD       CLOUDY    40  23  50 E10       29.87F WCI  33
$$

ABBREVIATIONS USED IN REMARKS
   TC - TEMPERATURE IN CELSIUS
  WCI - WIND CHILL INDEX
   HX - HEAT INDEX
  VSB - VISIBILITY





USA.gov is the U.S. government's official web portal to all federal, state and local government web resources and services.